Overview Statistics Trail Chart Weather Telemetry Raw packets
 

This is the latest recevied weather packets stored in our database for station/object EA2RCU-15. If no packets are shown the sender has not sent any weather packets the latest 10 day(s).

<< 11 12 13 14 15 16 17 >>
Time Temp. Humidity Pressure Rain* Wind** Luminosity Snow
1788538504 34.44° C 26% 1005 hPa 0 mm - - -
1788538204 36.11° C 23% 1005 hPa 0 mm - - -
1788537904 37.22° C 20% 1005 hPa 0 mm - - -
1788537604 36.67° C 21% 1005 hPa 0 mm - - -
1788537304 36.67° C 21% 1005 hPa 0 mm - - -
1788537005 36.67° C 20% 1005 hPa 0 mm - - -
1788536705 38.33° C 17% 1005 hPa 0 mm - - -
1788536404 38.89° C 16% 1004 hPa 0 mm - - -
1788536105 40.56° C 15% 1004 hPa 0 mm - - -
1788535805 40° C 15% 1004 hPa 0 mm - - -
1788535504 40.56° C 15% 1005 hPa 0 mm - - -
1788535221 39.44° C 16% 1005 hPa 0 mm - - -
1788534904 37.78° C 18% 1005 hPa 0 mm - - -
1788534605 36.67° C 19% 1004 hPa 0 mm - - -
1788534304 37.22° C 20% 1004 hPa 0 mm - - -
1788534004 33.89° C 26% 1004 hPa 0 mm - - -
1788533704 32.22° C 28% 1005 hPa 0 mm - - -
1788533404 32.22° C 28% 1005 hPa 0 mm - - -
1788533104 32.22° C 28% 1005 hPa 0 mm - - -
1788532804 32.22° C 29% 1005 hPa 0 mm - - -
1788532504 32.22° C 29% 1005 hPa 0 mm - - -
1788532204 32.22° C 30% 1005 hPa 0 mm - - -
1788531904 31.67° C 30% 1005 hPa 0 mm - - -
1788531604 31.67° C 29% 1005 hPa 0 mm - - -
1788531304 32.22° C 28% 1005 hPa 0 mm - - -

* Rain latest hour (hover to see other rain measurements)
** Current wind speed in m/s (hover to see current wind gust speed)